Wind_Speed
25 24 25 26 26 27 27 29 30 30 30 32 34 34 33 32 32 30 29 28 28 27 26 27 27 25 24 25 25 24 24 24 27 30 35 40 45 50 55 61 68 75 82 88 94 100 104 108 111 113 114 114 114 115 114 114 114 113 113 113 112 112 112 112 112 110 108 107 107 106 106 106 104 102 103 102 102 101 99 98 96 95 93 90 88
23 23 24 25 26 27 28 29 29 30 30 32 34 35 34 33 31 29 27 24 23 22 22 23 23 22 21 21 22 22 22 21 21 22 25 29 34 39 44 49 54 59 65 70 76 82 87 93 98 102 106 109 111 112 113 114 114 115 114 114 114 113 113 113 113 112 111 110 109 108 108 108 106 105 105 105 104 104 103 101 100 98 96 94 91
23 23 23 24 25 26 27 28 29 29 29 31 33 35 34 33 32 29 26 22 19 18 17 18 19 18 17 18 19 20 19 19 18 18 18 20 23 27 32 37 41 46 50 55 60 65 70 75 80 85 90 95 100 103 107 109 111 113 114 114 115 114 114 113 113 113 113 112 112 111 111 111 109 107 106 106 106 106 105 104 102 101 100 98 95
26 24 24 24 25 26 27 28 28 28 29 30 32 34 34 34 32 30 27 22 17 14 13 13 15 16 15 14 16 17 18 17 16 15 14 14 15 17 20 24 28 33 37 42 47 51 55 59 63 68 73 78 83 88 92 96 100 103 106 109 111 112 113 113 113 113 113 113 112 112 113 113 111 109 108 108 108 108 107 106 105 104 102 100 98
29 27 26 26 26 27 27 27 28 28 28 29 30 32 33 33 32 31 27 23 18 13 10 10 12 13 13 12 13 14 15 15 15 14 12 11 10 10 12 14 17 21 24 29 33 37 41 45 50 54 59 63 67 72 76 81 85 89 93 97 101 103 105 107 109 111 113 113 113 113 114 113 113 111 109 109 109 109 108 108 107 106 105 103 101
32 31 30 29 29 28 28 28 28 27 28 29 30 30 31 32 32 31 28 24 20 14 11 10 10 11 11 11 11 12 13 14 14 13 11 10 9 8 8 10 11 14 16 18 21 24 28 32 37 41 45 49 53 57 61 65 69 73 78 82 86 89 92 96 99 103 108 111 112 113 114 114 113 112 110 110 111 110 110 109 109 108 107 105 104
33 32 31 31 30 29 29 29 28 28 28 29 30 30 29 30 30 29 29 26 23 18 14 11 10 10 10 10 10 10 11 12 12 12 11 10 10 9 9 10 11 12 13 15 17 20 23 25 28 31 35 38 41 44 47 51 55 59 63 67 71 74 78 82 86 91 96 101 105 109 112 114 114 114 112 112 112 111 111 110 110 109 109 107 106
32 32 31 30 30 29 29 29 29 29 29 29 30 30 29 29 28 28 27 26 25 22 18 14 11 10 9 9 9 9 9 10 11 11 12 11 11 11 11 12 12 13 14 16 17 20 22 24 26 29 31 33 34 37 40 42 46 49 52 55 58 62 66 69 72 77 82 88 93 99 104 108 112 114 114 113 113 112 112 111 111 110 110 109 108
32 31 31 30 29 29 29 29 29 29 29 30 30 30 30 29 28 27 26 25 24 22 20 17 14 11 10 9 9 8 8 8 10 11 12 13 13 13 14 14 15 16 17 18 20 22 24 25 26 28 29 31 32 34 37 39 40 42 44 47 49 51 54 57 60 63 68 74 79 85 91 96 102 108 112 112 111 112 114 114 114 113 112 111 110
32 31 30 29 29 28 28 28 28 29 29 29 29 29 30 30 29 28 26 25 23 21 20 18 16 13 11 10 10 9 8 8 9 10 11 12 14 15 16 17 18 19 20 21 22 23 24 25 25 26 28 30 32 34 36 37 38 39 40 42 44 45 46 48 50 52 56 60 65 70 76 82 87 94 101 105 106 109 112 115 116 116 115 114 112
31 31 30 29 28 27 27 27 28 28 28 28 28 29 29 30 30 29 27 26 24 22 20 18 16 14 13 11 11 10 9 9 9 9 10 12 13 15 17 19 20 21 22 23 23 24 24 25 25 26 28 30 32 33 34 35 36 37 39 41 42 42 42 43 44 45 46 49 52 57 62 67 71 78 85 91 95 99 105 110 113 116 118 117 115
29 29 30 29 28 27 26 26 27 27 28 28 28 28 28 28 29 29 28 27 25 23 21 19 17 15 14 13 12 11 10 10 9 10 10 12 13 15 18 20 21 21 22 22 22 23 24 26 27 28 28 29 30 30 31 33 35 37 39 40 41 41 41 41 42 42 42 42 43 45 48 53 58 63 70 77 82 87 93 100 106 111 115 118 117
26 27 28 28 28 27 26 25 25 26 26 27 27 27 27 27 26 27 27 27 26 25 23 21 19 17 16 14 13 12 11 11 10 10 11 11 13 14 17 19 20 21 22 22 22 23 24 25 26 27 27 28 28 29 30 32 35 37 38 39 40 40 41 41 41 42 41 41 41 40 41 44 47 50 56 63 69 75 81 88 95 102 108 113 116
24 25 26 26 27 26 26 25 25 25 25 25 26 26 26 26 26 25 25 25 26 26 25 23 22 19 17 16 14 13 12 12 11 11 11 11 12 13 15 17 19 21 21 22 22 23 23 24 25 26 26 27 27 28 30 32 35 37 37 38 39 39 40 40 41 41 41 40 39 39 40 40 40 42 45 50 57 63 69 75 82 89 97 104 110
25 24 24 25 25 25 25 25 24 24 24 23 23 24 24 25 25 25 25 24 24 25 25 25 24 22 18 16 15 13 12 11 12 12 12 12 13 13 14 16 18 19 20 21 22 23 23 24 25 26 27 27 28 29 30 32 34 36 36 37 37 38 39 39 40 40 40 39 39 39 40 41 40 40 42 44 48 54 59 65 71 77 85 94 102
25 25 25 24 24 24 23 23 23 22 22 22 22 22 22 23 24 24 25 25 24 24 24 25 25 23 20 16 15 13 12 11 10 11 12 13 14 14 15 16 17 19 20 21 22 23 24 25 26 27 28 29 30 30 31 32 34 35 35 35 36 36 37 37 38 39 38 38 39 40 41 41 41 41 41 42 44 46 51 56 61 67 74 83 92
25 25 25 25 24 23 22 21 21 21 20 20 20 20 20 21 22 23 23 24 24 25 24 24 25 23 20 17 15 13 12 12 11 10 10 11 13 14 15 16 18 19 20 21 23 24 25 26 27 28 29 30 31 32 33 34 34 34 34 35 35 35 35 36 37 37 37 37 38 40 40 41 41 41 42 42 42 43 45 48 52 57 64 72 80
26 25 25 25 25 24 23 22 21 20 19 19 18 18 19 19 20 21 22 23 24 25 25 25 25 24 20 17 15 14 13 12 11 11 10 9 9 10 13 15 17 18 20 21 22 24 25 26 28 29 29 30 31 32 33 33 33 33 34 34 34 34 34 35 36 35 35 36 38 39 40 40 40 40 40 40 41 42 42 42 44 49 55 62 69
27 26 26 25 26 26 25 24 23 22 20 19 17 17 17 18 19 20 21 22 23 25 25 25 25 24 21 18 16 15 14 13 12 12 11 10 9 8 8 9 11 14 16 18 20 22 24 25 27 28 29 30 31 32 32 32 32 33 34 34 34 34 34 34 34 34 35 36 37 38 38 38 38 38 38 39 40 40 39 38 40 42 47 52 59
28 28 27 26 26 26 26 26 26 25 23 21 19 18 17 18 18 19 19 20 22 23 25 25 24 23 21 19 17 15 14 13 12 12 11 10 9 8 7 7 6 7 9 12 14 17 20 22 25 26 28 29 30 31 31 31 31 32 33 34 34 33 33 33 33 34 35 36 37 37 37 37 36 36 36 37 37 37 36 36 37 38 40 43 49
29 28 28 27 27 26 26 26 26 26 25 24 22 20 19 18 19 19 20 20 21 22 23 24 24 23 21 19 17 15 13 12 11 10 10 9 9 8 7 7 6 6 6 6 8 10 12 15 19 22 25 27 29 31 31 30 30 30 31 32 33 32 32 33 33 35 36 36 36 36 35 35 35 34 34 34 35 35 34 34 35 35 36 38 42
30 29 28 28 27 26 26 26 27 27 27 26 25 23 21 20 20 20 21 21 21 22 22 23 24 23 22 20 18 16 14 13 12 11 10 10 11 11 10 10 9 9 9 8 9 9 9 10 12 15 17 21 25 28 29 30 29 28 29 30 31 32 32 33 34 36 36 36 35 35 34 33 33 33 33 33 33 33 32 32 33 33 34 35 37
31 31 30 29 28 27 26 26 27 28 28 28 27 26 25 24 23 22 22 22 22 22 22 23 24 25 24 22 20 17 15 15 14 14 13 12 12 12 12 12 12 12 12 12 12 12 12 12 12 13 13 14 17 20 23 26 27 27 27 28 29 30 32 34 36 37 37 36 35 35 33 32 32 32 31 31 31 31 31 31 32 33 34 35 36
34 31 31 30 29 28 27 26 26 27 28 29 29 28 28 27 26 25 24 24 23 23 23 24 25 26 26 24 22 20 17 16 15 15 14 12 11 11 11 11 11 12 12 13 13 13 14 15 15 15 15 15 14 15 16 19 21 24 26 27 28 30 32 35 36 37 37 37 36 35 33 33 32 31 31 31 30 30 30 31 32 33 33 35 36
38 34 32 31 30 30 28 27 26 26 27 28 29 29 29 29 28 28 27 26 25 25 25 25 26 27 27 26 25 22 19 16 15 16 15 14 12 11 11 11 11 11 12 12 13 13 13 14 15 16 17 17 17 16 15 16 17 19 22 26 28 30 32 34 35 36 37 36 36 35 34 34 34 33 32 32 31 30 30 31 31 31 31 33 34
43 39 35 32 31 30 30 28 27 26 26 26 27 28 29 29 29 29 30 30 29 28 27 27 27 27 27 27 26 23 20 17 16 16 16 16 15 13 12 12 12 12 13 13 14 14 14 14 15 16 17 18 18 18 17 17 17 18 19 22 25 27 29 32 33 34 35 35 35 35 34 35 36 35 34 34 33 32 31 32 32 31 30 31 31
47 43 40 36 33 31 30 29 28 27 26 25 26 27 28 28 28 28 28 29 30 30 30 30 29 28 27 27 27 23 19 17 16 16 15 16 16 15 14 14 13 13 14 14 15 15 16 16 16 17 17 18 18 18 18 18 19 19 20 20 21 23 25 28 31 33 34 34 35 35 34 36 37 36 35 35 34 34 33 34 33 32 31 30 30
51 48 44 40 36 33 31 30 29 28 27 26 25 25 26 27 27 27 26 26 27 28 28 28 28 28 27 27 25 22 18 17 16 16 15 15 15 15 14 14 14 14 15 15 15 15 16 16 17 18 18 19 19 18 17 17 17 18 20 22 22 22 23 25 27 30 31 33 35 35 36 36 36 35 35 36 35 35 35 35 34 34 33 32 31
54 51 48 44 41 37 34 31 29 29 28 27 26 25 25 25 26 26 26 25 25 25 25 25 24 24 24 24 22 19 18 17 16 16 15 15 14 14 14 13 13 14 14 15 15 15 15 15 15 16 18 18 19 19 19 18 17 17 18 20 22 24 25 25 26 27 28 30 33 35 35 35 34 33 34 35 36 36 36 35 35 35 35 34 33
56 55 52 49 45 42 38 34 31 29 28 28 28 27 25 24 24 25 26 25 25 24 23 22 21 21 20 20 18 17 17 17 17 16 15 14 14 13 13 12 13 13 14 15 15 15 15 14 13 13 14 15 16 17 19 20 20 19 18 18 19 22 25 27 27 28 28 29 30 32 33 33 33 33 34 35 35 35 36 36 36 37 36 35 34
57 56 55 52 49 46 42 38 35 31 29 29 29 29 29 27 26 24 24 25 25 24 23 21 20 19 18 17 16 15 15 16 17 17 16 14 13 12 12 12 12 13 14 15 15 15 14 13 12 11 11 12 13 15 17 19 21 22 22 21 19 19 22 25 27 28 29 29 29 29 30 31 32 33 34 35 35 35 36 36 37 37 37 37 36
57 57 56 55 52 49 46 42 38 34 31 29 28 29 29 30 30 28 25 24 23 24 24 22 20 18 17 15 15 15 15 16 17 18 18 16 13 12 11 11 12 12 13 14 14 14 13 12 11 10 9 9 10 12 14 16 18 20 21 22 20 19 19 21 24 27 28 29 28 27 28 29 31 33 34 35 35 35 36 36 36 37 38 38 38
55 55 55 55 54 51 48 45 41 38 34 31 29 28 28 29 31 31 30 27 24 22 22 22 21 19 17 15 14 15 15 16 16 17 18 17 14 12 11 11 11 12 12 13 13 12 12 12 11 9 7 6 6 7 9 10 12 14 17 19 20 20 18 18 20 23 27 28 28 26 26 28 30 31 31 31 32 32 32 32 33 34 35 36 37
55 55 54 54 53 52 50 47 44 41 37 33 30 28 28 28 28 30 31 31 29 24 21 21 21 19 17 16 14 14 16 17 17 17 18 17 14 12 11 11 10 10 10 11 11 11 11 11 11 11 10 9 8 7 7 7 8 10 12 15 18 19 19 18 18 19 23 26 27 26 26 27 28 28 28 27 27 28 27 28 28 29 29 30 33
54 54 54 53 53 52 50 48 46 43 40 36 32 29 28 27 27 27 28 30 31 28 24 21 20 19 18 16 15 15 16 16 17 18 18 17 14 12 12 11 10 9 9 9 9 9 9 10 11 12 12 12 13 12 10 9 9 9 9 11 13 15 18 18 18 18 19 22 24 25 26 27 27 27 27 27 28 28 27 27 27 27 27 28 30
53 53 53 53 52 52 51 49 47 45 42 38 35 31 28 27 26 26 26 27 28 28 25 23 21 19 18 16 16 16 16 16 16 17 18 17 15 14 13 12 11 10 9 8 8 8 8 9 10 11 12 13 13 14 14 12 11 10 10 10 10 11 13 15 17 18 19 20 22 24 27 28 29 29 29 29 29 29 29 29 29 28 28 29 29
51 51 52 52 52 51 51 50 48 46 44 41 37 33 29 26 25 25 25 25 26 26 24 22 20 19 17 16 15 15 16 15 15 16 17 17 16 15 14 14 13 12 11 10 10 9 9 9 9 10 11 12 13 13 13 13 12 12 11 11 11 11 11 13 14 16 18 19 21 24 27 29 30 30 31 31 31 30 30 30 30 29 29 29 30
50 50 50 50 51 51 51 50 49 48 46 43 40 36 32 27 24 23 23 23 24 25 23 21 19 18 16 15 15 14 14 13 13 14 15 16 16 16 16 16 15 14 13 13 12 12 12 11 11 11 11 11 12 13 13 12 12 12 12 12 12 12 12 13 14 14 15 17 18 21 24 27 30 31 32 32 33 33 33 33 32 31 31 31 31
49 48 48 49 50 50 50 50 50 48 47 45 43 40 36 31 27 23 22 22 23 24 23 20 19 17 16 15 15 14 12 12 12 12 13 15 17 17 18 18 17 16 15 15 15 15 14 14 14 13 13 12 12 12 12 12 12 12 13 13 13 13 12 13 14 15 16 16 17 17 19 21 24 27 30 31 33 33 34 34 34 34 33 33 32
47 47 47 47 48 49 49 49 49 48 47 46 44 42 39 35 30 26 23 22 22 23 23 21 19 17 15 15 15 14 12 11 11 12 12 14 17 18 19 19 18 18 18 17 17 17 17 16 16 16 15 14 13 13 13 12 12 12 12 13 13 13 13 12 13 14 15 16 17 17 16 16 17 19 21 25 28 30 32 32 32 33 33 33 32
46 46 46 46 46 47 48 48 48 48 47 46 45 43 40 37 34 29 25 23 22 22 22 21 19 17 16 15 15 14 13 12 11 11 12 14 17 19 20 20 20 20 20 20 20 19 19 18 18 17 17 16 15 14 13 13 12 11 11 12 12 13 13 13 13 12 13 14 15 15 15 15 14 13 13 14 17 21 25 27 29 30 30 30 30
45 45 44 44 45 45 46 46 47 47 46 45 44 43 41 39 36 32 28 25 22 21 21 21 20 18 17 16 15 15 14 13 13 12 12 13 15 18 20 22 22 23 23 23 22 22 21 21 19 18 17 16 15 14 14 13 12 11 11 11 11 12 13 13 13 13 12 12 13 13 14 14 14 13 11 10 10 11 14 17 20 23 24 26 26
44 44 44 43 43 43 44 45 45 45 45 45 44 43 42 40 37 34 30 27 24 22 21 21 20 18 17 17 17 16 15 15 15 14 14 14 14 16 17 20 22 23 24 24 24 24 23 22 21 19 18 17 15 14 13 12 12 11 11 11 11 11 11 12 13 13 12 12 11 11 11 12 12 12 12 11 10 10 11 12 13 15 17 19 20
44 44 43 43 42 42 42 43 43 43 43 43 43 42 41 40 38 36 32 29 26 23 21 20 20 19 18 18 18 17 17 16 16 16 16 16 16 16 16 17 19 20 22 23 24 24 24 23 22 20 18 17 15 13 13 13 12 12 11 11 11 10 10 11 12 13 13 12 11 11 10 10 10 10 10 10 10 10 11 11 12 13 14 15 16
44 44 43 42 42 41 41 41 41 42 42 42 42 41 41 40 39 37 35 32 28 25 22 21 20 19 19 19 20 20 19 18 18 18 18 18 18 17 17 17 17 18 18 19 20 21 22 22 21 20 18 17 15 14 13 13 13 13 13 12 12 11 11 11 11 12 12 12 12 11 11 10 10 10 9 9 9 9 9 10 10 11 12 12 13
43 44 43 42 41 41 40 40 40 40 41 41 41 40 40 40 39 38 36 34 31 28 25 23 21 21 20 20 21 21 21 20 19 19 20 20 20 19 18 18 17 17 17 17 17 17 18 19 19 19 18 17 16 15 15 15 15 14 14 13 13 13 12 12 12 12 12 12 12 12 12 11 11 11 10 10 10 10 10 10 10 10 10 10 11
43 43 43 42 41 40 40 39 39 39 39 39 39 39 39 39 38 38 36 35 33 30 28 26 24 23 22 22 22 23 23 23 22 21 21 22 21 21 20 20 19 18 18 18 17 16 16 17 18 18 18 18 17 17 16 16 16 16 15 15 15 14 14 14 13 13 13 13 13 13 12 12 12 12 12 11 11 11 11 11 11 11 10 10 10
43 43 43 42 42 41 40 39 39 39 39 39 39 39 38 38 38 37 37 35 34 32 30 28 26 25 24 24 24 24 24 25 24 24 24 23 23 22 22 22 21 21 20 19 19 18 18 18 18 18 18 18 18 18 18 17 17 17 17 17 16 16 16 16 15 15 14 14 14 14 13 13 13 13 12 12 12 12 12 12 11 11 11 11 11
42 42 42 42 42 41 40 39 38 38 38 38 38 38 38 38 37 37 36 36 35 33 31 29 27 26 25 25 26 26 26 26 27 27 26 25 25 24 24 23 23 23 22 22 21 21 20 20 20 19 19 19 19 19 19 19 19 19 19 19 19 18 18 17 17 16 16 16 16 16 15 15 15 14 14 14 14 14 14 14 14 14 13 13 13
42 41 42 42 42 42 41 39 38 38 38 37 37 37 37 38 37 37 36 36 35 34 33 31 29 27 26 26 26 27 27 28 28 29 29 28 27 27 26 26 25 24 24 24 23 23 23 22 22 22 21 21 21 21 21 21 21 20 21 21 21 20 19 19 18 18 18 18 18 18 17 17 16 16 16 16 16 16 16 16 15 15 15 14 14
42 41 41 42 42 42 41 40 39 38 37 37 37 37 37 37 37 37 37 36 36 35 34 33 31 29 27 26 26 27 28 28 29 29 30 31 30 30 29 28 27 26 26 25 25 25 25 25 25 25 24 24 23 23 23 23 23 22 22 22 22 22 21 21 20 20 20 20 19 19 19 18 18 18 18 18 18 17 17 17 16 16 16 15 15
Wind_Direction
343 343 343 342 340 340 340 339 338 338 339 341 341 338 334 329 323 316 306 295 285 279 271 267 268 267 265 267 269 270 270 266 260 255 252 248 245 243 242 241 241 240 240 240 240 240 240 241 242 242 243 244 244 245 245 246 246 247 247 247 247 247 247 247 246 245 243 243 242 241 241 241 240 241 242 243 243 243 243 243 244 244 243 242 242
346 346 345 345 345 345 345 344 342 342 344 347 348 346 343 340 335 329 322 310 295 284 273 265 265 266 263 264 267 269 272 272 268 263 258 253 248 244 242 241 240 240 240 240 240 240 240 240 240 241 241 242 243 243 244 245 246 246 247 247 247 248 248 248 247 246 245 244 244 242 242 241 240 240 241 242 243 243 243 243 243 243 243 242 242
353 352 351 351 351 351 350 348 346 346 348 350 351 352 351 349 346 342 337 328 313 296 278 265 264 266 263 261 264 269 273 275 274 272 267 261 255 250 245 242 241 240 239 239 239 240 240 240 240 240 240 241 241 242 242 243 244 245 245 246 247 247 247 248 248 247 246 245 245 244 243 243 242 241 241 242 242 242 242 242 242 242 243 242 242
360 358 357 357 358 357 355 352 350 350 352 353 354 355 356 357 355 352 348 344 334 314 289 271 268 269 268 263 263 267 273 277 277 277 273 267 261 254 248 244 241 239 238 238 238 238 238 238 238 239 239 239 240 240 241 242 242 243 244 244 245 246 246 247 247 247 247 246 245 245 244 243 243 242 242 242 242 241 241 242 242 242 242 242 242
9 7 6 6 5 4 1 357 355 355 357 357 357 358 359 1 1 359 356 354 349 338 315 292 281 277 276 272 268 268 273 278 280 280 277 271 263 254 244 237 233 231 231 232 233 234 235 235 235 235 236 237 238 238 239 240 241 242 243 243 244 244 245 245 245 246 246 245 245 245 244 244 243 242 242 242 242 241 241 241 241 241 241 241 241
14 14 13 12 11 9 7 4 1 0 1 2 2 0 360 2 4 4 3 1 357 351 337 318 301 291 286 283 280 275 275 277 279 279 276 270 261 251 240 231 225 220 218 219 220 223 224 226 228 230 232 233 234 235 237 238 239 240 241 242 243 244 244 244 245 245 245 245 244 244 244 244 243 242 241 241 241 241 241 240 240 240 240 240 240
13 13 13 12 12 11 11 9 7 6 7 8 7 4 2 2 4 5 7 6 3 359 352 339 321 307 299 296 295 289 282 279 277 275 272 265 255 244 235 230 225 220 214 211 210 213 215 217 219 221 224 227 229 231 233 235 237 239 240 241 242 243 243 244 245 245 245 245 244 244 244 244 243 242 241 240 240 241 241 240 240 240 240 240 240
11 11 11 11 11 11 11 11 10 10 11 12 11 8 7 5 4 5 6 8 7 5 2 356 344 330 318 312 308 303 292 282 276 271 266 261 252 242 233 226 221 217 214 212 211 213 215 215 216 217 219 221 223 226 229 232 234 237 239 240 241 242 243 244 245 245 245 245 245 245 245 244 243 242 241 240 240 240 240 240 240 239 239 239 239
10 10 11 11 11 11 11 11 11 10 10 11 11 10 10 9 8 7 5 6 7 7 6 4 357 347 335 326 319 311 298 285 275 268 261 256 250 242 232 225 220 218 217 214 213 216 219 220 219 219 220 220 222 225 228 231 234 236 237 239 239 241 242 243 244 245 245 245 246 246 245 245 244 243 242 241 240 239 239 239 239 238 238 238 238
9 9 10 10 11 10 10 10 9 9 9 9 9 9 10 10 11 10 8 6 5 5 4 2 359 353 343 333 323 315 305 292 280 270 262 255 248 242 233 225 222 220 220 218 216 217 220 221 222 222 223 223 224 227 230 232 235 236 238 239 239 239 239 241 242 243 244 245 246 246 246 245 245 244 243 242 241 240 239 238 237 237 237 237 237
6 7 8 8 9 9 9 9 9 8 9 9 9 9 9 9 9 10 11 9 7 5 3 359 355 350 344 335 326 316 307 297 285 272 262 253 246 240 235 231 228 225 224 223 221 219 219 219 220 223 225 227 228 230 232 233 235 236 237 239 240 240 240 240 241 242 244 245 246 247 247 246 245 244 243 242 241 240 239 238 237 236 236 236 236
0 3 4 6 7 8 8 8 8 8 8 9 9 10 10 9 8 8 9 10 9 7 5 1 356 349 341 334 326 318 309 299 288 276 264 256 248 241 237 234 233 231 230 229 227 223 221 220 222 224 228 230 232 233 233 234 234 236 238 240 242 243 242 242 243 244 244 245 246 247 248 247 246 245 244 242 241 240 239 238 237 236 235 235 234
352 355 357 0 3 5 6 8 8 9 8 8 8 9 10 11 10 9 8 8 9 9 7 4 359 354 347 338 328 319 312 304 294 283 272 262 253 247 241 237 235 234 234 233 231 229 227 227 228 230 232 234 235 235 235 235 236 237 239 241 242 244 245 245 245 246 246 247 247 248 249 249 248 247 246 244 242 240 239 238 237 236 235 235 233
345 346 349 352 355 358 1 4 5 7 8 7 7 7 8 10 11 11 10 8 7 7 7 6 2 357 353 348 339 328 316 307 299 290 281 271 261 252 245 241 238 237 236 235 234 233 232 232 234 236 238 240 240 240 240 240 240 241 242 243 244 245 246 246 247 247 247 248 248 250 251 252 250 249 248 247 245 243 240 239 237 236 235 234 233
343 342 343 345 348 351 354 357 359 0 3 5 6 6 7 8 9 10 10 9 7 5 4 4 2 358 353 350 348 343 333 316 302 293 285 277 270 262 253 247 243 241 240 239 238 237 236 236 237 239 242 245 246 245 245 244 245 245 245 245 246 246 246 246 247 247 246 247 248 250 252 253 252 251 250 249 247 245 243 240 238 236 235 234 233
343 342 341 341 342 344 346 349 350 352 355 358 1 4 6 6 7 8 8 9 8 6 4 2 1 359 353 349 346 347 348 340 322 303 290 280 273 268 262 256 251 247 245 244 243 242 241 241 242 244 246 248 249 249 247 246 246 247 247 247 247 247 247 247 246 246 246 246 248 250 251 252 253 252 252 251 250 248 246 243 240 238 236 234 233
338 338 339 339 339 339 339 340 341 343 347 350 353 357 1 3 4 5 5 6 7 8 6 4 2 -0 357 352 346 342 344 349 348 338 318 298 283 273 267 262 258 254 252 250 248 248 247 247 247 247 248 250 251 250 248 247 247 247 248 248 248 248 247 247 246 246 246 246 247 249 250 251 252 251 251 250 249 249 248 246 243 240 238 235 234
333 332 332 334 335 336 335 334 334 335 339 343 346 349 354 358 359 0 2 4 5 6 6 5 3 2 1 359 355 347 339 338 343 348 346 336 318 297 281 271 265 261 258 255 253 252 251 250 250 249 249 249 250 250 249 249 249 249 249 249 248 247 246 245 245 245 244 245 246 248 249 249 249 248 247 247 246 248 248 248 246 244 241 237 234
331 329 327 327 328 329 330 330 331 332 334 336 339 342 346 349 352 353 356 0 3 3 3 3 2 1 2 2 1 356 345 337 334 336 339 341 341 333 316 296 281 271 265 261 258 256 255 253 252 252 250 249 249 249 249 250 250 250 250 249 247 245 244 243 243 243 243 243 245 246 247 246 245 243 243 243 244 245 247 247 247 246 244 240 236
329 327 326 323 322 321 322 323 325 326 328 329 330 333 336 338 341 343 347 352 356 358 359 358 357 357 358 357 357 357 354 349 343 337 334 335 336 337 337 331 317 298 282 272 265 261 259 257 255 254 253 251 250 250 249 250 250 249 249 247 245 243 241 240 240 241 241 242 243 244 244 242 241 240 240 241 243 244 245 245 246 246 245 242 239
329 327 325 323 321 318 315 315 316 318 320 321 321 322 324 327 329 332 335 338 342 347 351 351 351 352 353 351 348 347 348 349 348 343 338 335 335 332 330 330 327 319 307 293 281 272 266 262 259 256 254 253 252 252 251 250 249 248 247 246 243 239 237 237 238 239 240 241 242 243 242 241 240 240 241 241 243 244 244 245 245 246 245 243 240
331 328 326 323 321 319 315 311 309 309 310 313 314 314 315 316 318 320 324 327 330 334 339 342 343 345 348 347 344 338 332 330 328 326 322 317 316 314 311 308 305 301 296 290 284 278 273 268 265 261 257 255 253 252 251 249 248 246 246 245 242 238 236 235 236 238 240 241 242 242 242 242 242 242 242 243 243 244 245 245 246 246 246 245 243
332 329 327 325 323 321 318 314 309 306 305 305 306 308 309 309 310 311 314 317 320 324 329 332 335 337 340 343 341 335 328 322 317 314 313 311 310 310 308 304 299 295 291 287 283 278 273 270 268 266 263 259 256 253 251 249 247 244 243 243 241 237 235 235 237 239 240 241 242 242 243 243 243 244 244 244 244 244 245 246 246 245 245 245 244
337 331 327 325 324 323 321 318 313 309 306 303 302 302 302 303 304 305 306 309 312 315 320 323 326 329 332 335 336 332 325 320 314 311 312 313 313 314 314 311 306 300 295 291 287 281 275 270 266 264 263 261 259 256 252 250 248 244 241 241 239 237 236 236 238 239 240 241 242 243 243 243 244 244 244 243 243 243 243 245 246 247 246 245 244
346 338 331 326 323 323 323 321 317 313 309 306 303 301 299 298 298 299 300 302 305 308 312 315 318 321 323 326 329 328 321 315 311 308 308 310 312 312 313 312 310 307 302 298 295 290 283 274 267 261 259 259 259 258 255 252 249 245 242 240 239 238 237 238 239 241 242 243 243 243 243 243 243 243 244 243 243 242 242 244 246 247 246 245 243
352 347 340 332 325 321 321 321 320 318 313 309 306 303 301 299 297 296 296 297 298 300 303 306 309 312 313 315 320 321 315 309 306 303 302 305 307 307 307 307 307 306 303 300 297 294 291 284 276 267 259 255 255 256 256 254 251 248 245 243 242 240 239 239 240 242 243 244 244 244 243 242 243 243 244 244 244 243 242 243 245 246 247 247 245
358 354 348 341 332 324 319 319 320 320 319 316 311 308 305 302 301 298 296 296 296 296 298 299 302 304 305 307 312 313 308 301 299 297 296 298 300 301 302 302 302 303 302 300 297 293 291 288 283 277 268 260 254 252 253 254 252 249 246 245 244 243 242 241 241 241 242 242 242 242 241 240 242 243 243 244 244 244 242 242 243 244 246 247 247
1 358 355 350 342 333 323 318 317 318 320 320 318 315 311 307 305 303 300 298 296 296 296 297 299 300 301 303 306 306 300 293 292 291 291 292 294 296 298 299 300 302 304 303 299 294 291 289 285 279 273 266 259 252 249 251 252 249 247 245 244 243 243 244 244 243 242 241 240 240 240 240 241 241 242 243 243 243 242 243 243 243 244 245 246
2 1 359 356 351 344 335 324 317 315 316 319 321 320 318 314 310 307 304 301 298 297 297 297 298 299 300 300 300 298 293 289 287 285 286 287 290 293 296 297 299 302 304 303 300 298 296 295 291 283 275 268 261 254 250 251 252 252 250 247 246 245 245 246 246 246 245 243 240 239 239 240 240 240 240 241 242 242 242 243 243 243 243 243 244
2 2 1 360 356 352 345 336 326 318 314 315 318 320 321 320 317 313 309 304 301 299 298 298 299 300 300 299 295 289 286 285 284 282 281 282 285 290 293 294 297 301 303 303 303 302 301 300 297 290 280 270 262 256 254 254 254 254 252 250 249 249 249 249 248 247 245 244 241 239 237 237 237 237 237 238 239 240 241 241 242 243 244 243 243
2 2 2 1 360 357 352 345 337 328 319 314 314 316 318 320 321 320 316 309 304 301 299 299 300 301 300 297 291 284 280 280 281 281 279 277 279 285 289 289 292 298 302 303 303 304 304 301 297 292 285 275 266 261 260 259 258 256 254 252 251 252 254 253 251 248 245 243 241 239 236 234 234 235 235 236 236 237 238 239 241 243 244 245 244
1 2 2 1 1 360 357 352 346 338 328 318 312 311 313 316 318 320 321 318 311 304 301 301 301 301 300 295 288 284 281 279 278 277 275 273 274 280 282 282 287 295 300 301 300 299 301 302 298 291 287 280 271 266 265 264 263 260 258 254 252 253 256 257 253 247 243 240 239 237 235 233 232 233 234 235 237 238 239 241 242 243 245 246 246
1 2 2 2 1 1 359 356 352 346 339 329 319 311 309 310 313 317 320 323 320 311 303 301 302 303 301 295 288 285 285 284 280 274 270 268 268 272 273 275 282 293 299 301 301 297 295 296 294 287 280 275 270 268 267 265 262 260 258 256 253 252 254 256 254 248 241 237 234 231 231 230 231 232 234 235 237 239 240 241 242 243 245 245 246
1 2 3 3 2 1 0 359 355 351 346 339 330 319 311 307 308 311 316 321 324 319 309 303 303 303 301 295 290 288 290 289 284 275 266 262 262 263 263 266 276 288 295 301 303 299 292 288 286 282 278 275 273 272 270 266 262 259 257 255 254 252 252 252 252 248 242 236 231 228 228 230 231 232 233 234 236 237 239 240 242 244 245 246 245
359 1 2 3 3 3 2 1 358 355 350 345 338 330 320 312 308 308 311 317 321 321 315 308 306 304 300 295 293 295 296 293 285 275 264 258 256 255 256 259 267 278 287 295 302 303 297 289 283 280 278 278 277 277 275 271 265 259 255 253 251 251 251 250 248 244 239 234 230 228 229 232 235 236 236 237 238 239 240 241 243 244 245 247 247
358 0 2 3 3 4 3 2 1 358 355 350 344 337 329 320 312 309 309 313 318 319 315 310 308 305 299 294 295 299 301 297 286 273 262 255 252 251 251 254 259 268 277 285 292 298 300 296 287 281 278 278 279 279 278 276 272 265 258 253 249 247 247 247 246 243 239 235 232 229 230 233 236 238 239 240 241 243 243 243 244 244 245 247 248
357 359 0 2 3 4 4 3 3 1 359 355 350 344 336 327 318 312 310 311 316 317 314 311 308 304 295 291 292 297 301 300 289 273 261 253 249 248 250 252 255 261 270 277 281 287 294 300 298 291 283 279 278 278 277 277 275 271 264 257 250 244 241 241 242 242 241 240 238 237 237 238 239 240 241 243 244 244 245 244 243 243 244 246 247
355 357 359 1 2 3 4 4 4 3 2 360 356 351 345 337 327 317 312 312 315 318 316 312 309 303 293 288 289 292 299 303 295 277 261 251 246 247 249 251 254 259 267 273 278 283 290 297 302 301 294 285 278 275 275 274 273 272 269 263 256 248 241 237 237 238 239 240 241 243 244 246 246 246 245 245 245 244 244 243 242 241 242 243 245
354 355 357 359 1 2 4 4 4 4 3 2 0 357 352 346 338 327 318 314 316 318 317 313 310 303 292 287 289 293 300 308 304 287 265 249 243 245 249 251 253 259 265 271 276 281 287 292 297 299 299 292 282 275 271 270 269 268 267 265 262 256 250 243 238 237 236 237 237 240 244 248 251 252 251 248 246 245 244 243 243 242 241 241 244
353 354 356 358 360 1 3 4 5 4 4 3 2 0 357 352 346 337 326 318 316 319 319 315 310 303 293 286 288 293 298 304 305 295 276 256 246 244 248 251 254 258 263 269 273 278 281 286 290 293 296 294 287 277 271 268 265 263 262 262 262 260 257 253 247 241 238 236 235 235 237 241 246 250 252 250 248 246 244 243 243 243 242 242 243
352 353 354 356 358 360 1 3 4 5 4 4 3 2 360 356 351 344 335 324 318 318 319 316 311 304 295 288 288 292 294 294 295 293 285 271 258 252 252 253 255 258 261 265 270 274 278 281 284 287 289 290 286 277 270 268 266 263 260 260 260 259 258 255 250 246 242 238 236 235 237 239 242 244 247 248 246 244 242 241 241 241 242 241 241
351 351 353 354 357 358 -0 2 3 4 4 4 4 3 2 359 355 349 342 332 322 317 317 317 312 304 296 291 290 292 293 291 288 286 285 281 273 266 262 261 261 262 264 266 268 271 274 277 280 280 282 284 282 275 269 268 269 268 266 262 258 258 258 257 252 248 243 240 238 237 238 240 243 244 244 242 240 237 236 236 237 238 239 239 240
350 350 351 353 355 357 359 0 2 3 4 4 4 4 3 2 359 354 347 339 328 318 314 314 311 304 296 291 289 290 292 292 289 284 281 280 279 276 274 271 269 268 268 268 269 270 271 273 275 275 275 275 275 271 267 267 269 269 270 267 260 257 258 259 256 252 248 243 237 234 235 237 240 243 243 242 238 234 231 230 230 232 234 235 236
349 349 350 351 353 355 357 359 0 1 3 3 3 4 4 3 1 358 353 345 336 324 315 310 308 303 295 288 285 286 288 289 290 288 283 279 276 276 277 278 277 275 273 271 270 270 269 269 269 269 268 267 265 264 264 266 268 267 266 265 262 257 255 255 255 255 253 248 240 232 227 225 227 231 233 234 234 233 232 230 229 229 231 233 234
348 348 349 350 352 354 356 357 359 360 1 2 3 3 3 3 2 1 358 352 345 335 322 311 305 301 295 287 283 282 283 284 286 287 286 282 278 275 274 276 278 279 278 276 273 270 267 265 264 262 261 258 255 255 258 261 264 264 263 262 260 257 253 249 248 249 250 248 244 238 229 222 220 220 221 224 226 225 224 224 224 225 228 230 232
347 348 348 349 351 352 353 355 357 358 360 1 2 2 2 2 2 1 359 356 351 343 333 320 308 300 294 287 282 279 279 279 280 282 283 283 281 278 275 273 273 274 276 276 274 269 264 261 258 256 253 251 250 250 253 256 258 260 260 260 259 257 253 249 245 244 244 243 243 240 236 232 229 225 224 225 227 228 227 225 223 222 223 224 225
346 347 348 349 349 350 351 353 355 356 358 359 1 1 2 2 1 0 359 357 353 348 340 330 318 306 297 289 283 278 276 276 276 278 279 279 279 278 276 274 272 271 270 270 269 266 261 257 254 253 251 250 249 249 250 252 253 254 255 255 255 254 253 252 249 246 243 241 240 238 237 236 234 232 230 229 230 231 232 232 231 230 229 229 228
345 347 348 348 349 349 350 351 352 354 356 357 359 360 1 1 1 0 359 357 355 351 345 337 327 315 304 294 287 280 276 273 272 273 275 276 276 276 275 273 271 270 268 267 266 264 260 256 253 252 251 251 251 250 249 249 249 249 249 249 249 249 250 251 251 249 246 242 239 238 237 236 236 236 235 235 235 236 237 239 239 239 238 237 236
343 346 347 348 348 348 349 349 350 352 353 355 356 358 359 360 0 360 359 357 355 352 348 342 334 324 312 302 293 286 280 275 272 271 271 272 273 274 274 274 272 269 267 265 264 263 261 258 255 251 250 250 251 251 250 249 249 249 248 248 248 248 248 248 249 248 246 244 242 241 239 239 240 241 241 241 241 241 241 241 240 240 240 239 238
341 344 346 347 347 348 348 348 349 350 351 352 354 355 357 358 358 359 358 357 356 353 350 345 339 331 321 310 300 291 285 280 276 272 270 270 270 271 272 273 272 271 268 265 263 261 261 259 257 254 251 249 249 249 249 249 248 249 249 250 250 250 249 248 247 246 246 246 245 244 242 242 242 243 244 244 244 243 242 241 241 241 240 239 239
339 342 344 345 346 347 347 347 347 348 348 350 351 353 354 355 356 357 357 356 355 354 351 347 342 337 329 320 309 299 290 284 280 276 273 270 269 269 269 270 271 271 270 268 265 262 260 258 256 254 252 250 249 249 249 249 249 248 248 248 249 249 250 249 248 246 245 245 245 245 245 244 244 245 245 245 245 245 245 244 243 242 242 241 240
Height
5345 5342 5340 5337 5334 5331 5328 5324 5321 5317 5314 5310 5306 5301 5297 5292 5288 5283 5280 5278 5276 5276 5275 5275 5276 5276 5277 5277 5277 5277 5276 5276 5277 5277 5278 5280 5282 5285 5288 5292 5297 5302 5307 5313 5319 5325 5332 5339 5345 5352 5358 5363 5370 5377 5381 5386 5391 5394 5399 5404 5408 5414 5420 5425 5431 5443 5453 5455 5461 5469 5472 5475 5484 5490 5492 5496 5501 5506 5512 5518 5522 5527 5532 5539 5544
5344 5341 5338 5336 5333 5329 5326 5323 5319 5316 5312 5308 5303 5299 5294 5289 5285 5280 5276 5274 5272 5272 5271 5271 5272 5273 5274 5274 5274 5274 5274 5274 5274 5275 5276 5277 5278 5281 5283 5286 5289 5294 5298 5304 5309 5315 5321 5327 5333 5340 5345 5351 5358 5363 5368 5373 5377 5381 5386 5390 5395 5400 5406 5412 5417 5426 5436 5442 5446 5454 5458 5461 5470 5478 5480 5483 5488 5493 5499 5505 5511 5516 5521 5527 5533
5342 5340 5337 5334 5331 5328 5325 5322 5318 5315 5311 5307 5302 5298 5293 5288 5283 5279 5275 5272 5270 5269 5269 5269 5270 5270 5271 5272 5272 5272 5272 5272 5273 5273 5274 5275 5276 5278 5279 5282 5285 5288 5292 5296 5301 5306 5311 5318 5323 5329 5333 5339 5345 5350 5355 5360 5364 5368 5373 5377 5381 5387 5393 5398 5402 5409 5419 5427 5433 5438 5443 5446 5456 5465 5469 5471 5475 5480 5487 5493 5499 5504 5509 5515 5522
5342 5339 5337 5334 5331 5327 5324 5321 5318 5314 5310 5306 5302 5297 5292 5288 5283 5279 5275 5272 5269 5268 5268 5268 5268 5269 5270 5270 5271 5271 5271 5272 5272 5272 5273 5274 5275 5276 5277 5280 5282 5285 5288 5291 5295 5299 5304 5310 5315 5319 5323 5329 5334 5339 5343 5348 5351 5355 5360 5364 5368 5374 5381 5384 5387 5393 5401 5411 5418 5422 5426 5432 5441 5451 5457 5459 5462 5468 5474 5480 5486 5491 5497 5504 5510
5342 5339 5336 5333 5330 5327 5324 5321 5317 5313 5309 5305 5301 5297 5293 5288 5284 5280 5276 5273 5271 5269 5268 5268 5268 5268 5269 5269 5270 5271 5271 5271 5272 5272 5273 5274 5275 5276 5277 5278 5280 5283 5285 5288 5291 5295 5299 5303 5307 5311 5315 5320 5325 5329 5333 5337 5340 5344 5348 5352 5356 5362 5367 5370 5373 5378 5385 5394 5403 5406 5410 5418 5426 5436 5444 5446 5448 5455 5461 5467 5473 5479 5485 5492 5499
5343 5340 5337 5333 5330 5327 5324 5321 5317 5313 5309 5305 5301 5298 5294 5290 5286 5282 5278 5275 5273 5271 5270 5269 5268 5268 5269 5269 5270 5270 5271 5271 5272 5272 5273 5274 5275 5276 5277 5278 5280 5282 5284 5286 5289 5292 5296 5299 5302 5306 5310 5314 5318 5321 5325 5328 5331 5334 5338 5342 5346 5350 5353 5357 5361 5365 5371 5379 5387 5390 5393 5402 5410 5420 5430 5432 5434 5441 5447 5453 5460 5466 5472 5480 5486
5345 5341 5337 5334 5331 5327 5324 5321 5317 5314 5310 5306 5302 5299 5295 5291 5288 5284 5281 5277 5275 5273 5271 5270 5269 5269 5269 5269 5270 5270 5271 5271 5271 5272 5273 5274 5275 5276 5277 5279 5280 5282 5284 5286 5288 5291 5294 5297 5300 5303 5306 5310 5313 5316 5319 5322 5324 5327 5331 5334 5337 5339 5343 5347 5350 5354 5360 5366 5371 5374 5378 5386 5394 5403 5412 5417 5421 5427 5434 5441 5448 5454 5460 5467 5474
5346 5342 5339 5335 5332 5328 5325 5321 5318 5314 5310 5307 5303 5300 5296 5293 5289 5286 5283 5280 5277 5275 5273 5272 5271 5270 5270 5270 5270 5271 5271 5271 5271 5272 5272 5273 5274 5276 5277 5278 5280 5282 5284 5286 5289 5291 5293 5296 5299 5302 5304 5307 5310 5312 5315 5317 5320 5322 5325 5328 5330 5333 5336 5340 5342 5345 5350 5354 5357 5360 5365 5372 5379 5386 5395 5403 5409 5415 5422 5427 5434 5440 5446 5452 5459
5347 5343 5340 5336 5333 5329 5326 5322 5319 5315 5312 5308 5304 5301 5297 5294 5291 5288 5285 5282 5280 5277 5275 5274 5273 5272 5271 5271 5271 5271 5271 5271 5271 5271 5272 5273 5274 5275 5276 5278 5279 5281 5283 5285 5288 5290 5292 5294 5297 5299 5302 5304 5307 5309 5311 5313 5316 5318 5321 5323 5325 5328 5330 5333 5336 5338 5341 5343 5346 5349 5353 5359 5366 5372 5380 5390 5397 5402 5406 5410 5416 5424 5431 5437 5444
5348 5344 5341 5337 5334 5330 5327 5323 5320 5316 5313 5309 5306 5302 5299 5295 5292 5289 5287 5284 5281 5279 5277 5276 5275 5274 5273 5272 5272 5271 5271 5271 5271 5271 5271 5272 5273 5274 5275 5277 5278 5280 5282 5284 5286 5288 5290 5292 5294 5296 5299 5301 5303 5305 5307 5309 5312 5314 5316 5318 5320 5323 5325 5327 5330 5332 5333 5336 5338 5340 5343 5349 5355 5359 5365 5375 5382 5384 5388 5393 5401 5409 5415 5421 5429
5349 5345 5342 5338 5335 5331 5328 5324 5321 5317 5314 5310 5307 5304 5300 5297 5294 5291 5288 5286 5283 5281 5279 5277 5276 5275 5274 5273 5272 5272 5271 5271 5271 5271 5271 5271 5272 5273 5274 5275 5276 5278 5280 5282 5283 5285 5287 5289 5291 5293 5295 5297 5299 5301 5303 5305 5307 5309 5311 5313 5315 5317 5320 5322 5324 5326 5328 5330 5331 5333 5335 5340 5344 5346 5351 5359 5365 5367 5371 5378 5385 5391 5397 5405 5415
5350 5346 5343 5339 5336 5332 5329 5325 5322 5319 5315 5312 5308 5305 5302 5299 5295 5292 5290 5287 5285 5282 5280 5278 5277 5275 5274 5273 5272 5272 5271 5271 5270 5270 5270 5270 5271 5271 5272 5273 5275 5276 5278 5280 5281 5283 5284 5286 5288 5290 5291 5293 5295 5297 5299 5301 5303 5304 5306 5308 5310 5313 5315 5317 5319 5321 5322 5324 5326 5327 5330 5332 5334 5337 5341 5346 5349 5352 5355 5361 5368 5375 5381 5391 5401
5350 5347 5344 5340 5337 5333 5330 5326 5323 5320 5316 5313 5309 5306 5303 5300 5297 5294 5291 5289 5286 5284 5282 5280 5278 5276 5274 5273 5272 5271 5270 5270 5270 5269 5269 5269 5270 5270 5271 5272 5273 5274 5276 5277 5279 5281 5282 5284 5285 5287 5288 5290 5291 5293 5295 5296 5298 5299 5301 5303 5305 5307 5309 5311 5313 5315 5317 5319 5320 5322 5324 5325 5327 5330 5332 5334 5336 5339 5343 5348 5354 5360 5366 5375 5386
5350 5347 5343 5340 5337 5334 5330 5327 5324 5320 5317 5314 5311 5307 5304 5301 5298 5296 5293 5290 5288 5285 5283 5281 5279 5277 5275 5273 5271 5270 5269 5269 5268 5268 5268 5268 5268 5269 5270 5270 5271 5272 5273 5275 5276 5278 5279 5281 5282 5284 5285 5286 5288 5289 5291 5292 5293 5295 5296 5298 5300 5302 5304 5306 5308 5310 5311 5313 5315 5318 5319 5320 5322 5323 5324 5325 5326 5329 5333 5336 5341 5346 5352 5359 5368
5349 5346 5343 5340 5337 5334 5331 5327 5324 5321 5318 5315 5312 5309 5305 5302 5299 5297 5294 5292 5289 5286 5284 5281 5279 5277 5275 5273 5271 5270 5269 5268 5267 5266 5266 5267 5267 5267 5268 5268 5269 5270 5271 5272 5273 5275 5276 5278 5279 5280 5281 5283 5284 5285 5286 5287 5288 5290 5291 5293 5295 5297 5299 5301 5303 5304 5306 5308 5310 5312 5313 5314 5315 5316 5317 5318 5319 5320 5323 5326 5330 5334 5338 5343 5350
5348 5345 5342 5339 5336 5333 5330 5327 5324 5321 5318 5315 5312 5309 5306 5303 5300 5297 5295 5292 5289 5287 5284 5282 5280 5277 5275 5273 5272 5270 5269 5267 5266 5265 5265 5265 5265 5265 5266 5266 5267 5268 5268 5269 5270 5272 5273 5274 5275 5277 5277 5279 5279 5280 5282 5282 5283 5285 5287 5288 5290 5292 5294 5296 5297 5299 5301 5303 5305 5306 5307 5308 5309 5311 5312 5312 5313 5314 5315 5318 5322 5325 5328 5332 5339
5347 5344 5341 5338 5335 5332 5329 5327 5324 5321 5318 5315 5312 5309 5306 5303 5301 5298 5295 5292 5290 5287 5285 5282 5280 5278 5276 5273 5272 5270 5269 5267 5266 5265 5264 5263 5263 5263 5263 5264 5264 5265 5266 5266 5267 5268 5269 5270 5272 5273 5273 5274 5275 5276 5277 5278 5279 5280 5282 5284 5285 5287 5289 5291 5292 5294 5296 5298 5299 5300 5301 5303 5304 5305 5306 5307 5308 5308 5309 5312 5315 5317 5319 5323 5329
5346 5343 5340 5337 5334 5331 5329 5326 5323 5320 5317 5314 5312 5309 5306 5304 5301 5298 5295 5293 5290 5287 5285 5283 5280 5278 5276 5274 5272 5270 5269 5268 5266 5265 5264 5263 5262 5262 5261 5261 5262 5262 5263 5264 5264 5265 5266 5266 5267 5268 5269 5270 5270 5271 5272 5273 5275 5276 5277 5279 5280 5282 5284 5286 5287 5289 5291 5292 5294 5295 5296 5297 5299 5300 5301 5302 5303 5303 5304 5308 5309 5310 5312 5316 5322
5344 5341 5338 5335 5332 5330 5327 5324 5322 5319 5316 5314 5311 5308 5306 5303 5301 5298 5296 5293 5290 5287 5285 5283 5281 5278 5276 5274 5272 5271 5269 5268 5267 5265 5264 5263 5262 5261 5260 5260 5260 5260 5260 5261 5261 5262 5262 5263 5264 5264 5265 5265 5266 5267 5268 5269 5271 5272 5273 5274 5276 5278 5279 5281 5282 5284 5286 5287 5288 5289 5291 5292 5293 5294 5296 5297 5298 5299 5301 5303 5303 5304 5307 5311 5315
5342 5339 5336 5333 5330 5328 5325 5323 5320 5318 5315 5313 5310 5307 5305 5303 5300 5298 5295 5293 5290 5288 5285 5283 5281 5279 5277 5274 5273 5271 5269 5268 5266 5265 5264 5263 5262 5261 5260 5259 5259 5258 5258 5258 5258 5259 5259 5259 5260 5260 5261 5262 5262 5263 5264 5265 5266 5268 5269 5270 5272 5273 5275 5276 5278 5279 5280 5281 5283 5284 5285 5287 5288 5290 5291 5292 5293 5295 5297 5298 5298 5300 5302 5304 5307
5339 5336 5333 5331 5328 5325 5323 5321 5318 5316 5313 5311 5309 5306 5303 5301 5299 5297 5294 5292 5290 5287 5285 5283 5281 5279 5277 5275 5273 5271 5269 5268 5266 5265 5264 5263 5262 5261 5260 5259 5258 5258 5257 5257 5256 5256 5256 5256 5256 5256 5257 5258 5258 5259 5260 5261 5262 5263 5264 5266 5267 5268 5270 5271 5273 5274 5275 5276 5278 5279 5281 5283 5284 5286 5287 5289 5290 5291 5293 5294 5295 5296 5297 5299 5300
5337 5334 5331 5328 5325 5323 5320 5318 5315 5313 5311 5309 5307 5304 5302 5299 5297 5295 5292 5290 5288 5286 5284 5282 5280 5278 5276 5274 5272 5271 5269 5267 5266 5264 5263 5262 5261 5260 5259 5258 5258 5257 5256 5256 5255 5255 5254 5254 5254 5254 5254 5254 5254 5255 5256 5257 5258 5259 5260 5261 5262 5263 5265 5267 5268 5268 5270 5271 5273 5275 5277 5279 5281 5282 5284 5285 5287 5288 5289 5290 5291 5292 5293 5294 5296
5335 5331 5328 5325 5323 5320 5317 5315 5312 5310 5308 5306 5304 5302 5300 5297 5295 5292 5290 5288 5286 5284 5282 5280 5278 5277 5275 5273 5271 5270 5268 5267 5265 5264 5262 5261 5260 5259 5258 5257 5256 5255 5255 5254 5254 5253 5253 5252 5252 5251 5251 5251 5251 5251 5252 5253 5254 5255 5255 5256 5257 5258 5260 5261 5262 5263 5265 5267 5269 5271 5273 5275 5277 5278 5280 5282 5283 5284 5286 5287 5287 5288 5290 5291 5293
5333 5329 5326 5323 5320 5317 5315 5312 5309 5307 5304 5302 5300 5298 5297 5294 5292 5290 5288 5286 5284 5282 5280 5278 5276 5274 5273 5271 5270 5268 5266 5265 5264 5262 5261 5260 5259 5258 5257 5256 5255 5254 5253 5252 5252 5251 5251 5250 5250 5249 5249 5249 5249 5249 5249 5249 5250 5251 5251 5252 5253 5254 5255 5257 5258 5259 5261 5263 5265 5267 5269 5271 5273 5275 5276 5277 5279 5281 5282 5283 5283 5284 5286 5287 5289
5331 5327 5323 5320 5317 5314 5311 5309 5306 5304 5301 5299 5296 5294 5293 5291 5289 5287 5285 5283 5281 5279 5277 5275 5273 5271 5270 5268 5267 5266 5264 5263 5262 5260 5259 5258 5257 5256 5255 5254 5253 5252 5251 5250 5249 5249 5248 5248 5247 5247 5247 5246 5246 5246 5247 5247 5247 5247 5248 5248 5249 5250 5251 5252 5253 5255 5257 5259 5261 5263 5265 5267 5269 5270 5271 5273 5274 5276 5278 5279 5279 5281 5282 5283 5284
5330 5325 5320 5317 5314 5311 5308 5306 5303 5301 5299 5296 5293 5291 5289 5287 5285 5283 5281 5279 5277 5276 5274 5272 5270 5269 5267 5266 5264 5263 5262 5260 5259 5258 5257 5257 5256 5255 5254 5253 5252 5251 5249 5248 5248 5247 5246 5245 5245 5244 5244 5244 5244 5244 5244 5244 5245 5245 5245 5245 5246 5247 5248 5249 5250 5251 5253 5255 5257 5259 5261 5262 5264 5265 5267 5268 5270 5272 5274 5274 5275 5277 5278 5279 5280
5330 5324 5318 5314 5311 5308 5305 5302 5300 5298 5296 5293 5291 5288 5286 5284 5282 5280 5278 5276 5274 5272 5270 5269 5267 5266 5264 5263 5261 5260 5259 5258 5257 5256 5255 5255 5254 5253 5252 5251 5250 5249 5248 5247 5246 5245 5244 5243 5242 5241 5241 5241 5241 5241 5241 5242 5242 5242 5243 5243 5243 5244 5245 5245 5246 5247 5249 5251 5253 5255 5256 5257 5259 5261 5262 5264 5266 5267 5269 5270 5271 5273 5274 5275 5277
5330 5324 5318 5313 5308 5305 5302 5299 5296 5294 5292 5290 5288 5286 5283 5281 5279 5277 5275 5273 5271 5269 5267 5265 5264 5262 5261 5259 5258 5257 5256 5255 5254 5253 5253 5252 5252 5251 5250 5249 5248 5247 5246 5245 5244 5243 5242 5241 5240 5239 5238 5238 5238 5238 5239 5239 5239 5239 5240 5240 5241 5241 5242 5242 5243 5244 5245 5246 5248 5249 5251 5253 5255 5256 5258 5259 5261 5262 5264 5265 5267 5269 5270 5271 5273
5329 5323 5318 5312 5307 5302 5299 5296 5293 5291 5288 5286 5285 5284 5281 5279 5276 5274 5272 5270 5268 5266 5264 5263 5261 5259 5258 5256 5255 5254 5252 5252 5251 5251 5251 5250 5250 5249 5248 5247 5246 5245 5244 5243 5242 5241 5240 5238 5237 5236 5235 5235 5235 5235 5236 5236 5236 5237 5237 5237 5238 5238 5238 5239 5240 5240 5241 5242 5243 5245 5247 5249 5251 5252 5253 5255 5256 5258 5259 5261 5263 5264 5266 5267 5269
5328 5322 5317 5311 5305 5300 5296 5293 5290 5287 5285 5282 5280 5279 5278 5276 5274 5271 5268 5266 5265 5263 5262 5260 5258 5257 5255 5253 5252 5251 5250 5249 5248 5248 5248 5248 5247 5247 5246 5245 5244 5243 5242 5241 5240 5239 5238 5236 5235 5234 5233 5232 5232 5232 5232 5233 5233 5233 5234 5234 5234 5235 5235 5235 5236 5236 5237 5238 5239 5240 5242 5244 5246 5248 5249 5251 5252 5253 5255 5256 5258 5259 5261 5263 5265
5326 5320 5315 5310 5304 5299 5294 5290 5286 5283 5281 5279 5277 5275 5273 5272 5271 5269 5266 5264 5261 5260 5258 5257 5255 5254 5252 5251 5249 5248 5247 5246 5245 5245 5245 5245 5245 5244 5244 5243 5242 5241 5240 5239 5238 5237 5236 5235 5234 5233 5231 5231 5230 5230 5230 5230 5230 5230 5230 5230 5231 5231 5231 5231 5232 5232 5233 5234 5235 5236 5238 5240 5242 5243 5245 5247 5248 5249 5251 5252 5253 5255 5256 5258 5260
5326 5320 5314 5309 5304 5298 5293 5288 5284 5280 5278 5275 5274 5272 5269 5267 5265 5264 5263 5262 5259 5257 5255 5253 5252 5250 5249 5248 5246 5245 5244 5244 5243 5242 5242 5242 5242 5242 5242 5241 5240 5240 5239 5238 5237 5236 5234 5233 5232 5231 5230 5229 5228 5228 5227 5227 5226 5226 5226 5227 5227 5228 5228 5228 5228 5228 5229 5230 5231 5233 5234 5236 5237 5239 5241 5243 5244 5245 5247 5248 5250 5251 5252 5253 5255
5328 5321 5315 5309 5303 5297 5292 5287 5283 5279 5275 5272 5270 5268 5267 5264 5262 5259 5258 5257 5256 5254 5252 5250 5248 5247 5246 5244 5243 5242 5241 5241 5240 5240 5239 5239 5240 5240 5240 5239 5238 5238 5237 5236 5235 5234 5233 5232 5231 5230 5229 5228 5227 5226 5225 5225 5224 5224 5224 5224 5224 5225 5225 5225 5225 5225 5225 5226 5228 5229 5230 5232 5233 5235 5237 5239 5240 5241 5243 5244 5245 5246 5248 5249 5250
5329 5322 5316 5310 5303 5298 5292 5287 5282 5277 5273 5270 5267 5265 5263 5262 5260 5257 5255 5252 5251 5250 5249 5247 5245 5244 5243 5241 5240 5240 5239 5237 5237 5236 5236 5237 5237 5237 5237 5237 5236 5236 5235 5234 5233 5232 5231 5231 5230 5229 5228 5227 5226 5225 5224 5223 5223 5222 5222 5222 5222 5222 5222 5222 5222 5222 5222 5223 5224 5226 5227 5228 5230 5231 5233 5235 5236 5237 5239 5240 5241 5242 5243 5245 5245
5328 5322 5316 5310 5304 5298 5292 5287 5281 5276 5272 5268 5265 5262 5260 5258 5256 5255 5253 5251 5248 5246 5245 5244 5243 5241 5240 5238 5237 5236 5236 5235 5234 5233 5233 5234 5234 5235 5235 5235 5234 5234 5233 5233 5232 5231 5230 5229 5228 5227 5226 5225 5225 5224 5223 5222 5222 5221 5220 5220 5220 5219 5219 5219 5220 5220 5220 5220 5222 5223 5224 5225 5227 5228 5230 5231 5232 5233 5234 5236 5237 5238 5239 5240 5240
5327 5321 5315 5309 5303 5298 5292 5286 5281 5276 5271 5267 5263 5260 5257 5255 5253 5252 5251 5249 5247 5244 5242 5241 5240 5238 5237 5236 5234 5233 5233 5232 5231 5230 5230 5231 5232 5232 5232 5232 5232 5232 5232 5231 5230 5229 5228 5227 5226 5225 5224 5223 5223 5222 5221 5221 5220 5219 5219 5218 5218 5218 5217 5217 5218 5218 5218 5218 5219 5220 5221 5222 5223 5224 5226 5227 5228 5229 5230 5231 5232 5233 5234 5235 5236
5326 5320 5314 5308 5303 5297 5292 5287 5281 5276 5271 5266 5262 5258 5255 5253 5251 5249 5248 5246 5245 5242 5240 5238 5237 5236 5235 5234 5232 5231 5230 5229 5228 5228 5227 5228 5229 5229 5230 5230 5230 5230 5229 5229 5228 5228 5227 5226 5225 5224 5223 5222 5221 5220 5219 5219 5218 5218 5217 5216 5216 5216 5216 5216 5216 5216 5216 5217 5217 5218 5218 5219 5220 5221 5222 5223 5224 5225 5226 5227 5228 5229 5230 5231 5232
5324 5319 5313 5307 5302 5297 5292 5286 5281 5276 5271 5266 5261 5257 5253 5251 5248 5247 5245 5244 5242 5240 5238 5236 5235 5234 5233 5232 5231 5229 5228 5227 5226 5225 5225 5225 5226 5226 5227 5227 5227 5227 5227 5227 5226 5225 5225 5224 5223 5222 5221 5220 5219 5218 5217 5217 5216 5216 5215 5215 5214 5214 5214 5214 5214 5214 5214 5214 5215 5215 5216 5216 5216 5217 5218 5218 5219 5220 5221 5222 5224 5225 5226 5227 5228
5323 5318 5312 5306 5301 5296 5291 5285 5280 5275 5270 5265 5260 5256 5252 5249 5246 5244 5242 5241 5239 5237 5236 5234 5233 5232 5231 5230 5229 5227 5226 5224 5224 5223 5223 5223 5223 5223 5224 5224 5224 5224 5224 5224 5223 5223 5222 5222 5221 5220 5219 5218 5217 5216 5215 5215 5214 5214 5213 5213 5213 5212 5212 5212 5211 5211 5212 5212 5212 5213 5213 5213 5213 5213 5214 5214 5215 5216 5217 5218 5219 5220 5221 5223 5224
5321 5316 5311 5305 5300 5295 5289 5284 5279 5274 5269 5265 5260 5255 5251 5247 5244 5242 5240 5238 5237 5235 5233 5232 5230 5230 5229 5228 5227 5225 5224 5222 5222 5221 5221 5221 5221 5221 5221 5221 5221 5221 5221 5221 5220 5220 5220 5219 5218 5218 5217 5216 5215 5214 5213 5213 5212 5212 5211 5211 5211 5210 5210 5210 5209 5209 5209 5210 5210 5210 5211 5211 5211 5211 5211 5211 5211 5211 5212 5213 5214 5216 5217 5218 5220
5319 5314 5309 5304 5299 5294 5289 5284 5279 5274 5269 5264 5259 5255 5250 5246 5243 5240 5237 5236 5234 5232 5231 5229 5228 5227 5226 5226 5225 5223 5222 5221 5220 5219 5219 5219 5218 5218 5218 5218 5218 5218 5218 5217 5217 5217 5216 5216 5215 5215 5214 5214 5213 5212 5211 5210 5210 5209 5209 5209 5209 5208 5208 5208 5208 5207 5207 5207 5208 5208 5208 5209 5209 5209 5208 5208 5207 5208 5208 5209 5210 5212 5213 5214 5216
5317 5312 5308 5303 5298 5293 5288 5283 5278 5273 5269 5264 5259 5254 5250 5246 5242 5238 5235 5233 5232 5230 5228 5227 5226 5224 5224 5223 5222 5221 5220 5219 5218 5217 5216 5216 5216 5216 5215 5215 5215 5214 5214 5214 5214 5213 5213 5213 5212 5212 5211 5211 5210 5209 5209 5208 5208 5207 5207 5207 5206 5206 5206 5206 5206 5206 5205 5205 5205 5205 5206 5206 5206 5206 5206 5206 5206 5205 5206 5206 5207 5208 5209 5210 5212
5315 5311 5306 5302 5297 5291 5286 5282 5277 5272 5268 5263 5259 5254 5250 5245 5241 5237 5234 5231 5229 5228 5226 5225 5223 5222 5221 5221 5220 5219 5218 5217 5216 5215 5214 5213 5213 5212 5212 5212 5211 5211 5211 5211 5210 5210 5210 5209 5209 5208 5208 5207 5207 5207 5206 5206 5205 5205 5205 5204 5204 5204 5204 5204 5204 5204 5204 5203 5203 5203 5203 5204 5204 5204 5204 5204 5204 5204 5204 5204 5205 5206 5206 5207 5208
5312 5309 5305 5300 5295 5290 5285 5280 5276 5271 5267 5262 5258 5253 5249 5245 5240 5236 5233 5230 5227 5225 5224 5222 5221 5220 5219 5218 5217 5216 5216 5215 5214 5213 5212 5211 5210 5209 5209 5208 5208 5207 5207 5207 5206 5206 5206 5205 5205 5205 5204 5204 5204 5204 5203 5203 5203 5203 5202 5202 5202 5202 5202 5202 5202 5202 5202 5202 5201 5201 5201 5202 5202 5202 5202 5202 5202 5203 5203 5203 5203 5204 5204 5205 5206
5309 5306 5302 5298 5293 5288 5284 5279 5275 5270 5266 5261 5257 5253 5248 5244 5240 5236 5232 5228 5225 5223 5221 5220 5219 5217 5216 5215 5214 5214 5213 5212 5211 5210 5209 5209 5208 5207 5206 5205 5204 5204 5203 5203 5203 5202 5202 5202 5202 5201 5201 5201 5201 5201 5201 5201 5201 5200 5200 5200 5200 5200 5200 5200 5200 5200 5200 5200 5200 5200 5200 5200 5200 5200 5201 5201 5201 5201 5201 5201 5202 5202 5203 5203 5204
5306 5303 5299 5295 5291 5287 5282 5277 5273 5269 5264 5260 5256 5251 5247 5243 5239 5234 5231 5227 5224 5221 5219 5217 5215 5214 5213 5212 5211 5210 5210 5209 5208 5207 5207 5206 5205 5204 5203 5202 5202 5201 5200 5200 5199 5199 5199 5198 5198 5198 5198 5198 5198 5198 5198 5198 5198 5198 5198 5198 5198 5198 5198 5198 5198 5198 5198 5198 5198 5198 5198 5198 5198 5198 5199 5199 5199 5199 5200 5200 5200 5201 5201 5201 5202
5303 5300 5296 5292 5288 5284 5280 5276 5271 5267 5263 5258 5254 5250 5246 5241 5237 5233 5229 5225 5222 5219 5216 5214 5212 5211 5210 5209 5208 5207 5206 5206 5205 5204 5203 5202 5202 5201 5200 5199 5199 5198 5197 5197 5196 5196 5195 5195 5195 5195 5195 5195 5195 5195 5195 5195 5195 5196 5196 5196 5196 5196 5196 5196 5196 5196 5196 5196 5196 5196 5196 5196 5196 5197 5197 5197 5197 5198 5198 5198 5199 5199 5199 5200 5200
5299 5296 5292 5289 5286 5282 5278 5273 5269 5265 5261 5257 5252 5248 5244 5240 5236 5232 5228 5224 5220 5217 5214 5211 5209 5207 5206 5205 5204 5203 5202 5202 5201 5200 5200 5199 5198 5197 5197 5196 5195 5195 5194 5193 5193 5193 5192 5192 5192 5192 5192 5192 5192 5192 5192 5192 5192 5193 5193 5193 5193 5194 5194 5194 5194 5194 5194 5194 5194 5194 5195 5195 5195 5195 5195 5195 5196 5196 5196 5197 5197 5197 5198 5198 5199
5296 5292 5289 5286 5282 5279 5275 5271 5267 5263 5258 5254 5250 5246 5242 5238 5234 5230 5226 5223 5219 5215 5212 5209 5206 5204 5202 5201 5199 5199 5198 5197 5197 5196 5195 5195 5194 5193 5193 5192 5192 5191 5191 5190 5190 5189 5189 5189 5188 5189 5189 5189 5189 5189 5189 5189 5189 5190 5190 5190 5190 5190 5191 5191 5192 5192 5192 5192 5192 5192 5193 5193 5193 5193 5194 5194 5194 5194 5195 5195 5196 5196 5196 5197 5197
5292 5289 5285 5282 5279 5275 5272 5268 5264 5260 5256 5252 5248 5244 5240 5236 5233 5229 5225 5221 5217 5214 5210 5207 5204 5201 5199 5197 5195 5194 5193 5192 5192 5191 5191 5190 5190 5189 5189 5188 5188 5187 5187 5186 5186 5185 5185 5185 5185 5185 5185 5185 5185 5185 5185 5186 5186 5186 5186 5187 5187 5187 5188 5188 5188 5189 5189 5189 5190 5190 5190 5190 5191 5191 5191 5192 5192 5192 5193 5193 5194 5194 5194 5195 5195
5289 5285 5282 5278 5275 5272 5268 5264 5261 5257 5253 5250 5246 5242 5238 5234 5230 5227 5223 5219 5216 5212 5208 5205 5202 5199 5196 5194 5192 5190 5189 5188 5187 5186 5186 5185 5185 5184 5184 5183 5183 5183 5182 5182 5182 5181 5181 5181 5181 5181 5181 5181 5181 5181 5181 5182 5182 5182 5183 5183 5183 5184 5184 5184 5185 5185 5186 5186 5187 5187 5187 5188 5188 5188 5189 5189 5190 5190 5190 5191 5191 5192 5192 5192 5193